DM1RG-6 Weather Reports


time (UTC)temp
C
wind
direction
speed
KPH
gust
KPH
rain 1hr
cm
rain 24hr
cm
rain mn
cm
humidity
%
barometer
mb
20260507100004 7 47 9.7 17.7 0.00 0.03 0.03 90 1013.4
20260507095403 7 48 8.0 12.9 0.00 0.03 0.03 90 1013.5
20260507094803 7 47 8.0 12.9 0.00 0.03 0.03 90 1013.4
20260507094204 7 44 8.0 14.5 0.00 0.03 0.03 90 1013.0
20260507093603 7 58 9.7 14.5 0.00 0.03 0.03 90 1013.3
20260507093004 7 69 8.0 12.9 0.00 0.03 0.03 91 1013.0
20260507092403 7 68 8.0 12.9 0.00 0.03 0.03 91 1013.1
20260507091803 7 51 6.4 11.3 0.00 0.03 0.03 92 1013.0
20260507091204 7 53 9.7 14.5 0.00 0.03 0.03 92 1012.8
20260507090604 7 50 11.3 14.5 0.00 0.03 0.03 92 1012.8
20260507090005 7 61 12.9 17.7 0.00 0.03 0.03 92 1012.8
20260507085404 7 55 14.5 17.7 0.00 0.03 0.03 92 1012.5
20260507084804 7 43 12.9 17.7 0.00 0.03 0.03 92 1012.5
20260507084204 7 48 11.3 14.5 0.00 0.03 0.03 92 1012.4
20260507083604 7 54 9.7 14.5 0.03 0.03 0.03 92 1012.2
20260507083004 7 44 9.7 14.5 0.03 0.03 0.03 92 1012.4
20260507082404 7 35 11.3 17.7 0.03 0.03 0.03 92 1012.0
20260507081804 7 48 11.3 17.7 0.03 0.03 0.03 92 1011.9
20260507081204 7 49 12.9 17.7 0.03 0.03 0.03 93 1012.0
20260507080604 7 50 12.9 17.7 0.03 0.03 0.03 93 1011.9
20260507080004 7 43 11.3 17.7 0.03 0.03 0.03 93 1012.0
20260507075404 7 39 11.3 17.7 0.03 0.03 0.03 93 1011.6
20260507074804 7 38 9.7 17.7 0.03 0.03 0.03 93 1011.8
20260507074203 7 44 12.9 20.9 0.03 0.03 0.03 93 1011.7
20260507073603 7 33 12.9 20.9 0.00 0.00 0.00 93 1011.6
20260507073004 7 24 9.7 14.5 0.00 0.00 0.00 93 1011.5
20260507072403 7 41 9.7 14.5 0.00 0.00 0.00 93 1011.5
20260507071804 7 36 9.7 14.5 0.00 0.00 0.00 93 1011.4
20260507071203 7 35 11.3 14.5 0.00 0.00 0.00 93 1011.6
20260507070603 7 33 9.7 12.9 0.00 0.00 0.00 93 1011.3
20260507070008 7 44 9.7 12.9 0.00 0.00 0.00 93 1011.5
20260507065403 7 58 9.7 11.3 0.00 0.00 0.00 92 1011.4
20260507064803 7 59 11.3 17.7 0.00 0.00 0.00 92 1011.3
20260507064203 7 48 9.7 17.7 0.00 0.03 0.00 92 1011.0
20260507063604 7 20 9.7 14.5 0.00 0.03 0.00 92 1011.2
20260507063004 7 37 11.3 14.5 0.00 0.03 0.00 91 1011.1
20260507062404 7 43 9.7 14.5 0.00 0.03 0.00 91 1011.1
20260507061803 7 38 9.7 14.5 0.00 0.03 0.00 91 1011.0
20260507061204 7 46 11.3 14.5 0.00 0.03 0.00 91 1010.9
20260507060603 7 45 12.9 17.7 0.00 0.03 0.00 91 1011.0
20260507060004 7 45 12.9 17.7 0.00 0.03 0.00 91 1010.6
20260507055403 7 42 11.3 17.7 0.00 0.05 0.00 91 1010.5
20260507054803 7 43 9.7 17.7 0.00 0.05 0.00 91 1010.6
20260507054203 7 42 8.0 12.9 0.00 0.05 0.00 91 1010.5
20260507053603 7 38 8.0 11.3 0.00 0.10 0.00 92 1010.7
20260507053004 7 44 11.3 22.5 0.00 0.10 0.00 92 1010.5
20260507052404 7 43 12.9 22.5 0.00 0.13 0.00 92 1010.5
20260507051803 7 35 9.7 17.7 0.00 0.13 0.00 92 1010.6
20260507051203 7 33 12.9 17.7 0.00 0.13 0.00 92 1010.3
20260507050603 7 33 11.3 14.5 0.00 0.15 0.00 92 1010.3
20260507050004 7 33 11.3 17.7 0.00 0.15 0.00 92 1010.3
20260507045403 7 26 12.9 17.7 0.00 0.18 0.00 92 1010.1
20260507044804 7 29 12.9 17.7 0.00 0.20 0.00 91 1010.1
20260507044204 6 41 11.3 17.7 0.00 0.23 0.00 91 1010.1
20260507043604 7 46 12.9 17.7 0.00 0.30 0.00 91 1010.2
20260507043004 6 48 12.9 17.7 0.00 0.30 0.00 91 1010.0
20260507042403 6 43 12.9 17.7 0.00 0.33 0.00 91 1010.1
20260507041803 6 48 12.9 17.7 0.00 0.36 0.00 91 1010.1
20260507041204 6 49 11.3 14.5 0.00 0.38 0.00 91 1009.7
20260507040604 6 38 11.3 22.5 0.00 0.43 0.00 92 1009.7
20260507040003 6 51 12.9 22.5 0.00 0.46 0.00 92 1009.9
20260507035404 6 52 11.3 12.9 0.00 0.51 0.00 92 1009.8
20260507034804 6 52 12.9 14.5 0.00 0.53 0.00 92 1009.8
20260507034203 6 47 12.9 17.7 0.00 0.56 0.00 91 1010.0
20260507033604 6 36 11.3 17.7 0.00 0.56 0.00 91 1009.9
20260507033004 7 46 11.3 17.7 0.00 0.61 0.00 91 1009.7
20260507032403 6 61 14.5 17.7 0.00 0.64 0.00 92 1009.5
20260507031804 7 48 11.3 14.5 0.00 0.64 0.00 92 1009.6
20260507031204 7 35 11.3 17.7 0.00 0.64 0.00 92 1009.5
20260507030603 7 44 11.3 17.7 0.00 0.64 0.00 92 1009.5
20260507030004 7 53 8.0 12.9 0.00 0.64 0.00 92 1009.4
20260507025403 7 61 8.0 14.5 0.00 0.66 0.00 92 1009.5
20260507024804 7 46 9.7 17.7 0.00 0.66 0.00 92 1009.3
20260507024203 7 41 11.3 17.7 0.00 0.66 0.00 91 1009.4
20260507023604 7 32 9.7 14.5 0.00 0.69 0.00 91 1009.3
20260507023004 7 38 14.5 20.9 0.00 0.69 0.00 91 1009.2
20260507022403 7 66 14.5 20.9 0.00 0.71 0.00 91 1009.3
20260507021804 7 70 9.7 14.5 0.00 0.71 0.00 92 1009.1
20260507021203 7 49 9.7 12.9 0.00 0.76 0.00 93 1009.3
20260507020603 7 46 11.3 17.7 0.00 0.79 0.00 94 1009.1
20260507020003 7 37 12.9 17.7 0.00 0.81 0.00 94 1009.0
20260507015403 7 35 12.9 17.7 0.00 0.81 0.00 94 1009.3
20260507014804 7 39 12.9 17.7 0.00 0.81 0.00 94 1009.2
20260507014203 7 32 14.5 22.5 0.00 0.84 0.00 94 1009.1
20260507013603 7 33 12.9 22.5 0.00 0.84 0.00 94 1009.0
20260507013004 7 43 11.3 20.9 0.00 0.86 0.00 94 1009.0
20260507012403 7 73 14.5 25.7 0.00 0.86 0.00 94 1008.7
20260507011803 7 62 17.7 25.7 0.00 0.89 0.00 93 1008.9
20260507011203 7 46 11.3 17.7 0.00 0.94 0.00 92 1008.8
20260507010603 8 21 9.7 12.9 0.00 0.94 0.00 92 1008.6
20260507010003 8 27 9.7 12.9 0.00 0.97 0.00 92 1008.5
20260507005403 8 24 12.9 20.9 0.00 0.97 0.00 91 1008.3
20260507004803 8 22 9.7 20.9 0.00 0.99 0.00 91 1008.3
20260507004203 9 39 11.3 17.7 0.00 1.02 0.00 90 1008.2
20260507003604 9 36 12.9 17.7 0.00 1.04 0.00 90 1008.3
20260507003004 9 47 12.9 17.7 0.00 1.09 0.00 90 1008.3
20260507002403 9 42 14.5 20.9 0.00 1.12 0.00 90 1007.9
20260507001803 9 43 14.5 22.5 0.00 1.14 0.00 89 1007.9
20260507001203 9 40 14.5 22.5 0.00 1.19 0.00 89 1007.9
20260507000604 10 41 11.3 12.9 0.00 1.30 0.00 89 1008.1
20260507000004 10 40 8.0 12.9 0.00 1.30 0.00 89 1008.1
20260506235404 10 44 6.4 9.7 0.00 1.30 0.00 89 1008.0
20260506234804 10 47 8.0 11.3 0.00 1.32 0.00 89 1007.9
20260506234204 10 50 8.0 11.3 0.00 1.37 0.00 89 1007.8
20260506233604 10 59 6.4 6.4 0.00 1.42 0.00 89 1008.1
20260506233003 10 56 6.4 9.7 0.00 1.42 0.00 89 1008.0
20260506232404 10 45 8.0 11.3 0.00 1.45 0.00 89 1008.1
20260506231803 10 36 9.7 12.9 0.00 1.47 0.00 89 1008.1
20260506231204 10 30 9.7 12.9 0.00 1.47 0.00 89 1008.0
20260506230604 10 55 8.0 11.3 0.00 1.47 0.00 89 1008.0
20260506230003 10 62 8.0 12.9 0.00 1.47 0.00 89 1007.9
20260506225403 10 45 8.0 12.9 0.00 1.47 0.00 89 1008.0
20260506224804 10 41 8.0 12.9 0.00 1.50 0.00 89 1007.8
20260506224203 10 40 8.0 12.9 0.00 1.50 0.00 89 1008.1
20260506223603 10 56 8.0 17.7 0.00 1.50 0.00 89 1008.1
20260506223003 10 51 11.3 17.7 0.00 1.50 0.00 89 1007.8
20260506222403 10 42 9.7 12.9 0.00 1.52 0.00 89 1007.9
20260506221804 10 52 8.0 11.3 0.00 1.52 0.00 89 1007.9
20260506221203 10 48 8.0 12.9 0.00 1.55 0.00 89 1007.7
20260506220603 10 41 9.7 12.9 0.00 1.55 0.00 88 1007.6
20260506220004 10 44 11.3 17.7 0.00 1.60 0.00 88 1007.8
20260506215403 10 33 9.7 14.5 0.00 1.60 1.60 88 1007.6
20260506214803 10 45 9.7 14.5 0.00 1.60 1.60 88 1007.8
20260506214203 10 50 9.7 11.3 0.00 1.63 1.60 88 1007.6
20260506213603 10 45 8.0 11.3 0.00 1.63 1.60 88 1007.8
20260506213004 10 49 9.7 14.5 0.00 1.63 1.60 87 1007.8
20260506212403 10 38 9.7 14.5 0.00 1.63 1.60 88 1007.5
20260506211803 10 39 12.9 17.7 0.00 1.63 1.60 88 1007.6
20260506211203 10 42 11.3 17.7 0.00 1.63 1.60 88 1007.4
20260506210604 10 38 11.3 14.5 0.00 1.63 1.60 88 1007.6
20260506210004 10 32 11.3 20.9 0.00 1.63 1.60 87 1007.6
20260506205403 10 33 14.5 22.5 0.00 1.63 1.60 87 1007.5
20260506204803 10 55 12.9 22.5 0.00 1.63 1.60 87 1007.5
20260506204203 10 80 14.5 20.9 0.00 1.63 1.60 87 1007.8
20260506203603 10 67 12.9 20.9 0.00 1.63 1.60 88 1007.5
20260506203004 10 52 12.9 17.7 0.00 1.63 1.60 88 1007.5
20260506202404 11 47 12.9 17.7 0.00 1.63 1.60 88 1007.5
20260506201804 11 53 12.9 20.9 0.00 1.63 1.60 88 1007.4
20260506201204 11 47 12.9 20.9 0.00 1.63 1.60 88 1007.4
20260506200604 11 26 12.9 17.7 0.00 1.63 1.60 88 1007.5
20260506200004 11 28 12.9 17.7 0.00 1.63 1.60 89 1007.5
20260506195404 11 45 8.0 12.9 0.00 1.63 1.60 89 1007.1
20260506194803 11 44 11.3 14.5 0.00 1.63 1.60 89 1007.1
20260506194203 11 50 12.9 17.7 0.00 1.63 1.60 89 1007.1
20260506193603 11 44 12.9 17.7 0.00 1.63 1.60 89 1006.9
20260506193003 11 50 9.7 14.5 0.00 1.63 1.60 89 1006.9
20260506192403 11 43 9.7 14.5 0.00 1.63 1.60 89 1006.8
20260506191803 11 34 9.7 14.5 0.00 1.63 1.60 89 1006.9
20260506191203 11 55 11.3 17.7 0.00 1.63 1.60 89 1006.6
20260506190603 11 58 11.3 17.7 0.00 1.63 1.60 88 1006.6
20260506190003 11 35 11.3 14.5 0.00 1.63 1.60 88 1006.6
20260506185404 11 33 14.5 17.7 0.00 1.63 1.60 88 1006.5
20260506184803 11 59 14.5 17.7 0.00 1.63 1.60 88 1006.4
20260506184203 11 43 9.7 17.7 0.00 1.63 1.60 89 1006.3
20260506183604 12 39 9.7 12.9 0.00 1.63 1.60 90 1006.1
20260506183004 12 48 9.7 14.5 0.00 1.63 1.60 89 1006.3
20260506182403 12 32 9.7 14.5 0.00 1.63 1.60 89 1006.4
20260506181803 12 28 8.0 12.9 0.00 1.63 1.60 89 1006.3
20260506181204 12 39 8.0 11.3 0.00 1.63 1.60 90 1006.2
20260506180604 12 33 8.0 11.3 0.00 1.63 1.60 90 1006.1
20260506180004 12 15 8.0 14.5 0.00 1.63 1.60 90 1005.8
20260506175403 12 18 8.0 12.9 0.00 1.63 1.60 90 1005.9
20260506174803 12 14 6.4 12.9 0.00 1.63 1.60 90 1005.9
20260506174203 12 12 6.4 9.7 0.00 1.63 1.60 90 1005.9
20260506173603 12 21 6.4 9.7 0.00 1.63 1.60 90 1005.7
20260506173004 12 25 6.4 11.3 0.00 1.63 1.60 90 1005.7
20260506172403 12 33 9.7 14.5 0.00 1.63 1.60 90 1005.8
20260506171803 12 37 11.3 14.5 0.00 1.63 1.60 89 1005.7
20260506171203 12 44 9.7 14.5 0.00 1.63 1.60 89 1005.7
20260506170603 12 42 11.3 14.5 0.00 1.63 1.60 89 1005.8
20260506170004 12 46 9.7 14.5 0.00 1.63 1.60 88 1006.1
20260506165403 12 47 9.7 12.9 0.00 1.63 1.60 88 1005.7
20260506164804 12 40 12.9 17.7 0.00 1.63 1.60 89 1005.6
20260506164203 12 42 11.3 17.7 0.00 1.63 1.60 89 1005.8
20260506163604 12 34 11.3 14.5 0.00 1.63 1.60 88 1005.6
20260506163004 12 51 12.9 20.9 0.00 1.63 1.60 88 1005.7
20260506162404 13 48 14.5 20.9 0.00 1.63 1.60 87 1005.4
20260506161804 13 46 8.0 14.5 0.00 1.63 1.60 87 1005.5
20260506161204 13 42 8.0 11.3 0.00 1.63 1.60 87 1005.7
20260506160604 13 51 9.7 12.9 0.00 1.63 1.60 87 1005.8
20260506160004 13 43 9.7 11.3 0.00 1.63 1.60 88 1005.9
20260506155404 13 48 11.3 14.5 0.00 1.63 1.60 87 1005.8
20260506154804 12 41 12.9 14.5 0.00 1.63 1.60 87 1006.0
20260506154204 13 34 12.9 17.7 0.00 1.63 1.60 86 1005.9
20260506153604 13 55 14.5 20.9 0.00 1.63 1.60 86 1006.0
20260506153004 13 59 14.5 20.9 0.00 1.63 1.60 86 1005.9
20260506152403 13 52 11.3 17.7 0.00 1.63 1.60 85 1006.0
20260506151803 13 21 12.9 17.7 0.00 1.63 1.60 85 1005.9
20260506151204 13 30 12.9 17.7 0.00 1.63 1.60 86 1006.0
20260506150604 13 34 11.3 17.7 0.00 1.63 1.60 87 1006.0
20260506150004 13 50 9.7 14.5 0.00 1.63 1.60 87 1005.9
20260506145403 13 26 9.7 14.5 0.00 1.63 1.60 86 1005.8
20260506144803 13 15 6.4 11.3 0.00 1.63 1.60 84 1005.8
20260506144203 13 358 6.4 11.3 0.00 1.63 1.60 86 1006.0
20260506143603 13 9 6.4 11.3 0.00 1.63 1.60 87 1006.1
20260506143004 13 37 9.7 14.5 0.00 1.63 1.60 87 1006.0
20260506142403 13 44 11.3 14.5 0.00 1.63 1.60 87 1005.9
20260506141803 13 28 9.7 12.9 0.00 1.63 1.60 87 1006.0
20260506141204 13 26 12.9 17.7 0.00 1.63 1.60 88 1005.9
20260506140604 13 19 11.3 17.7 0.00 1.63 1.60 87 1005.9
20260506140003 13 6 8.0 12.9 0.00 1.63 1.60 86 1006.0
20260506135404 13 24 8.0 12.9 0.00 1.63 1.60 86 1005.8
20260506134804 13 13 4.8 6.4 0.00 1.63 1.60 86 1005.9
20260506134203 13 14 4.8 6.4 0.00 1.63 1.60 87 1006.0
20260506133604 13 34 6.4 9.7 0.00 1.63 1.60 88 1006.0
20260506133003 13 31 8.0 11.3 0.00 1.63 1.60 88 1005.7
20260506132403 12 25 6.4 11.3 0.00 1.63 1.60 89 1005.7
20260506131803 12 25 6.4 9.7 0.00 1.63 1.60 89 1006.1
20260506131203 13 6 4.8 9.7 0.00 1.63 1.60 89 1006.0
20260506130603 13 352 6.4 11.3 0.00 1.63 1.60 88 1005.9
20260506130004 13 350 6.4 9.7 0.00 1.63 1.60 88 1005.9
20260506125403 12 352 6.4 9.7 0.00 1.63 1.60 89 1005.8
20260506124803 12 356 6.4 11.3 0.00 1.63 1.60 89 1005.8
20260506124203 12 6 6.4 11.3 0.00 1.63 1.60 89 1006.0
20260506123603 12 15 6.4 9.7 0.00 1.63 1.60 90 1005.8
20260506123003 12 360 6.4 11.3 0.00 1.63 1.60 90 1005.6
20260506122403 12 348 6.4 11.3 0.00 1.63 1.60 90 1005.9
20260506121803 12 353 4.8 6.4 0.00 1.63 1.60 90 1005.8
20260506121203 12 344 3.2 6.4 0.00 1.63 1.60 90 1005.9
20260506120603 12 325 4.8 9.7 0.00 1.63 1.60 89 1005.7
20260506120004 12 345 3.2 9.7 0.00 1.63 1.60 89 1005.8
20260506115404 12 343 3.2 6.4 0.00 1.63 1.60 90 1005.8
20260506114803 12 334 3.2 6.4 0.00 1.63 1.60 90 1005.8
20260506114203 12 307 4.8 6.4 0.00 1.63 1.60 90 1005.9
20260506113604 12 289 1.6 6.4 0.00 1.63 1.60 90 1005.8
20260506113004 12 9 1.6 3.2 0.00 1.63 1.60 91 1005.9
20260506112403 12 1 3.2 6.4 0.00 1.63 1.60 91 1005.8
20260506111804 12 350 3.2 6.4 0.00 1.63 1.60 91 1005.9
20260506111203 12 12 4.8 6.4 0.00 1.63 1.60 91 1005.6
20260506110604 12 355 4.8 6.4 0.00 1.63 1.60 91 1005.6
20260506110004 12 338 4.8 6.4 0.00 1.63 1.60 92 1005.7
20260506105403 12 340 4.8 11.3 0.00 1.63 1.60 92 1005.6
20260506104804 12 353 4.8 11.3 0.00 1.63 1.60 92 1005.4
20260506104204 12 360 6.4 6.4 0.00 1.63 1.60 91 1005.2
20260506103604 12 335 6.4 11.3 0.00 1.63 1.60 91 1005.4
20260506103003 12 324 6.4 11.3 0.00 1.63 1.60 91 1005.0
20260506102404 13 22 4.8 9.7 0.00 1.63 1.60 92 1004.9
20260506101803 12 23 6.4 9.7 0.00 1.63 1.60 93 1005.0
20260506101204 12 9 6.4 9.7 0.00 1.63 1.60 94 1004.9
20260506100604 12 341 4.8 9.7 0.00 1.63 1.60 95 1005.0